Weather in Dalyan

Turkey     36°50′08″N   28°38′49″E
temp.,
°C
wind,
m/s
gust,
m/s
humid.,
%
clouds,
%
prec.,
mm/h
press.,
hPa
HPBL,
m
8 march, mon
mon800:00+11nnw33650 0.0 101770
03:00+9n33680 0.0 101777
06:00+8n34700 0.0 101784
09:00+10nnw33580 0.0 1017149
12:00+16w33330 0.0 1017705
15:00+17wsw553222 0.0 1014860
18:00+16w4542100 0.0 1014275
21:00+12nw2253100 0.0 1015123
9 march, tue
tue900:00+11nne2250100 0.0 101663
03:00+11n224099 0.0 101556
06:00+10n224095 0.0 101551
09:00+12nne123696 0.0 101574
12:00+17sse3336100 0.0 1014572
15:00+17s5561100 0.0 1014756
18:00+16s236692 0.0 1013603
21:00+13s128367 0.0 1014251
10 march, wed
wed1000:00+12n33849 0.0 101563
03:00+12n227055 0.0 101453
06:00+12n226186 0.0 101345
09:00+14n225383 0.0 101373
12:00+19wsw324047 0.0 1012638
15:00+19sw554823 0.0 1011644
18:00+17wsw57630 0.0 1010627
21:00+14wnw24841 0.0 1012230
11 march, thu
thu1100:00+13nne227968 0.0 101354
03:00+12nne227484 0.0 101260
06:00+11nnw127282 0.0 101252
09:00+13n116491 0.0 101289
12:00+17sw335564 0.0 1012722
15:00+18wsw886246 0.1 1010873
18:00+16w567254 1.9 1009679
21:00+14w347862 3.2 1011256
12 march, fri
fri1200:00+12nnw477952 0.2 1013292
03:00+9nnw577426 0.2 1014251
06:00+8n57720 0.0 1016245
09:00+9n69560 0.0 1018450
12:00+16n35240 0.0 1018786
15:00+18wsw53280 0.0 1017753
18:00+16ssw34430 0.0 1017343
21:00+12ese22610 0.0 1018217